Tracking 30072 objects as of 15-Jan-2025
HD Live streaming from Space Station
objects crossing your sky now

THOR ABLESTAR DEB

Track THOR ABLESTAR DEB now!
10-day predictions


NORAD ID: 121
Int'l Code: 1961-015F
Perigee: 833.3 km
Apogee: 968.0 km
Inclination: 66.7 °
Period: 102.9 minutes
Semi major axis: 7271 km
RCS: 0.26 m2 (medium)
Launch date: June 29, 1961
Source: United States (US)
Launch site: AIR FORCE EASTERN TEST RANGE (AFETR)

Note: This is SATELLITE DEBRIS
Your satellite tracking list
Your tracking list is empty




NASA's NSSDC Master Catalog

Two Line Element Set (TLE):
1 00121U 61015F   25014.87382450  .00000066  00000-0  94797-4 0  9998
2 00121  66.7462 249.8460 0092641   3.0426 357.1200 14.00088389253804
Source of the keplerian elements: AFSPC